Location: Unspecified
(51.0950°N, 12.9690°E)
Time: 03:41:31
(UTC+00:00)

EO-79 - Pass Details

Date: 03 May 2024
Orbit: 562 x 575 km, 98.0° (Epoch: 27 May)

Event Time Altitude Azimuth Distance (km) Brightness Sun altitude
Rises 01:25:47 0° 25° (NNE) 2,803 ? -16.4°
Reaches altitude 10° 01:28:22 10° 42° (NE) 1,899 ? -16.2°
Maximum altitude 01:31:33 21° 93° (E) 1,305 ? -15.9°
Drops below altitude 10° 01:34:43 10° 144° (SE) 1,886 ? -15.6°
Enters shadow 01:36:09 - 154° (SSE) 2,364 ? -15.4°
